Cloud_Cover
68 68 68 64 68 68 64 64 56 48 48 48 48 64 68 76 76 76 68 56 48 32 20 12 8 8 0 0 0 0 0 0 0 0 0 0 0 0 0 0 0 0 0 0 0 0 0 0 0 0 0 0 0 0 0 0 0 0 0 0 0 0 8 20 32 36 24 12 8
76 76 76 80 76 68 64 56 48 56 68 76 80 80 80 88 88 76 56 48 44 36 20 12 8 8 8 8 8 8 0 0 0 0 0 0 0 0 0 0 0 0 0 0 0 0 0 0 0 0 0 0 0 0 0 0 0 0 0 0 0 0 0 8 20 48 64 44 32
80 80 80 80 76 68 64 56 68 76 80 88 88 88 92 92 76 64 48 44 36 24 20 12 8 8 8 8 8 0 0 0 0 0 0 0 0 0 0 0 0 0 0 0 0 0 0 0 0 0 0 0 0 0 0 0 0 0 0 0 24 24 12 36 36 36 56 80 80
88 92 88 76 76 68 64 68 80 88 92 92 92 92 92 92 68 56 48 44 36 32 24 20 12 12 8 8 0 0 0 0 0 0 0 0 0 0 0 0 0 0 0 0 0 0 0 0 0 0 0 0 0 0 0 0 48 36 32 88 80 56 44 48 48 48 48 48 36
92 92 80 64 64 68 76 88 92 92 92 92 92 92 88 80 56 32 20 12 12 20 20 12 12 8 0 0 0 0 0 0 0 0 0 0 0 0 0 0 0 0 0 0 0 0 12 44 64 64 48 44 32 24 20 32 56 80 88 92 92 88 80 56 56 68 80 44 64
88 76 68 68 80 88 88 92 92 92 92 92 92 88 80 68 36 24 20 20 20 20 20 20 12 8 0 0 0 0 0 0 0 0 0 0 0 0 0 0 0 0 0 0 36 68 76 36 76 92 88 68 48 44 44 44 44 56 76 80 48 68 88 68 76 80 80 64 68
68 64 64 88 92 92 92 92 92 92 92 92 92 76 56 32 24 20 24 32 24 20 20 20 8 0 0 0 0 0 0 0 0 0 0 0 0 0 0 0 0 8 32 68 88 88 88 88 88 88 80 44 76 88 80 56 80 80 64 36 76 88 88 88 88 88 80 68 24
92 88 92 92 92 92 92 92 92 92 92 92 64 36 24 24 32 24 20 20 20 20 12 12 8 8 0 0 0 0 0 0 0 0 0 0 0 8 12 20 8 12 24 36 48 68 80 80 80 80 68 36 64 80 76 32 32 48 76 92 88 68 64 88 36 48 80 80 64
92 92 92 92 92 92 92 92 92 80 64 48 44 44 36 36 24 24 24 32 12 8 8 8 8 8 8 8 8 8 8 8 8 12 24 36 20 32 48 64 80 88 76 24 68 64 36 36 36 32 44 88 88 88 80 44 44 56 76 88 48 44 48 48 44 32 32 36 68
92 92 92 92 92 92 92 80 88 64 36 36 36 32 24 24 20 20 12 12 8 8 8 8 12 20 20 32 48 64 64 56 64 68 76 76 80 80 76 44 68 80 76 36 76 68 56 88 68 64 68 76 80 88 88 88 88 76 68 88 64 68 80 68 88 88 80 88 48
92 92 92 92 88 88 68 44 36 36 36 44 32 32 24 24 20 20 12 12 8 12 12 20 56 76 88 88 88 80 76 80 48 44 44 32 68 76 68 76 56 68 88 80 88 80 80 88 88 80 80 88 88 80 80 88 88 88 88 88 88 88 88 88 88 68 56 88 88
92 92 88 88 68 48 44 48 44 44 44 36 36 36 32 24 20 12 12 12 12 32 48 64 80 80 68 68 76 48 32 56 24 32 44 24 56 76 80 76 76 80 80 68 80 76 68 88 88 76 64 88 88 76 64 76 80 88 88 88 80 80 80 88 88 88 88 80 76
92 88 80 64 44 44 48 48 44 44 44 36 36 36 32 24 12 20 24 24 44 64 76 80 68 56 36 32 48 36 24 44 36 44 48 48 76 88 76 36 44 64 80 88 88 88 88 88 80 88 88 88 88 88 80 56 80 88 88 88 76 76 76 88 88 88 80 64 56
88 80 68 56 48 48 48 48 44 44 44 44 36 32 32 36 36 48 56 48 56 48 44 44 24 32 36 36 44 44 44 48 48 68 88 88 88 88 80 64 80 88 80 68 80 88 80 80 80 80 88 88 88 88 80 76 76 80 88 88 88 76 64 68 80 80 76 76 76
76 76 64 44 48 48 48 48 44 44 48 36 36 48 68 80 88 80 68 68 68 68 48 20 44 44 32 8 44 48 56 80 68 68 80 80 80 80 80 80 80 80 80 64 80 88 88 80 88 80 80 88 80 68 56 36 64 80 88 88 80 56 36 56 80 80 68 64 56
68 68 68 64 56 56 56 64 44 44 48 48 68 80 88 88 76 64 56 76 48 48 56 56 76 76 64 44 76 64 56 80 80 80 80 80 80 80 80 80 68 76 80 80 88 88 80 64 80 80 76 88 56 32 24 44 80 88 88 68 64 68 76 92 88 88 80 80 76
68 68 64 64 64 64 64 64 64 64 56 68 76 76 76 76 48 48 64 68 64 64 68 80 80 80 80 80 80 80 80 80 80 80 80 80 80 80 80 80 68 76 80 64 56 56 44 24 48 64 56 56 48 32 32 68 76 76 64 68 76 88 92 92 88 80 80 76 68
64 64 64 68 64 68 68 68 68 64 64 76 76 68 56 64 56 68 80 76 80 80 80 80 80 80 80 80 80 80 80 80 80 80 80 80 80 80 88 88 64 68 76 32 20 20 20 24 36 48 56 56 80 48 20 64 76 76 68 80 80 88 92 88 80 76 76 68 64
68 76 76 76 68 68 68 68 64 68 76 80 80 76 68 76 80 80 80 80 80 80 80 80 80 80 80 80 80 80 80 80 80 80 80 88 80 88 88 88 64 48 36 20 44 44 32 36 48 68 80 48 76 48 32 80 76 80 80 68 68 68 76 88 68 64 64 64 64
80 80 80 80 64 56 56 64 64 68 80 80 80 80 80 80 80 80 80 80 80 80 80 80 80 80 80 80 80 80 80 80 80 80 88 88 80 80 88 88 56 32 24 56 56 36 32 68 44 36 48 64 80 56 32 56 44 56 68 76 68 76 80 80 68 56 56 76 68
80 80 76 64 56 56 64 76 76 76 80 80 80 80 80 80 80 80 80 80 80 80 80 80 80 80 80 80 80 88 88 88 88 88 88 80 80 80 88 80 44 32 36 44 44 48 56 44 20 36 64 76 80 68 64 68 36 36 56 68 68 76 80 88 80 76 68 76 68
80 68 56 48 44 64 76 80 80 80 80 80 80 80 80 80 80 80 80 80 80 80 80 80 80 80 80 80 80 80 88 80 80 80 80 80 80 76 64 56 44 36 36 32 64 68 64 68 64 64 68 88 88 76 56 56 36 56 80 80 76 76 80 92 88 88 80 76 76
32 36 44 44 64 76 76 80 80 80 80 80 80 80 80 80 80 80 80 80 80 80 80 80 80 80 80 80 80 80 80 80 80 80 80 80 48 56 76 76 44 44 64 76 80 68 64 68 80 80 80 92 92 88 80 76 76 88 92 92 88 88 88 92 92 92 88 88 88
32 36 48 68 76 80 80 80 80 80 80 80 80 80 80 80 80 80 80 80 80 80 80 80 80 80 80 80 80 80 80 80 80 80 80 80 76 76 80 88 76 76 68 36 36 48 64 80 88 88 88 92 88 88 88 92 92 92 92 92 92 80 68 76 88 92 92 92 92
36 36 48 80 80 80 80 80 80 80 80 80 80 68 68 80 80 80 76 48 76 80 80 80 80 80 80 80 80 80 80 80 80 80 80 80 80 80 80 80 64 68 68 32 44 56 68 88 88 88 88 88 88 88 76 48 80 80 76 68 68 68 64 68 76 80 80 76 88
64 76 76 80 80 80 80 80 80 80 80 76 80 80 80 80 80 68 56 76 80 80 80 80 80 80 80 80 80 80 80 80 80 80 80 80 80 80 80 80 76 68 64 76 76 80 88 92 92 92 92 80 88 80 80 80 92 92 88 88 88 88 88 88 88 88 92 92 88
76 80 80 80 80 80 80 80 80 80 80 80 80 80 80 80 80 80 76 80 80 80 80 80 80 80 80 80 80 80 80 80 80 80 80 80 80 80 80 80 80 64 44 64 76 88 88 92 92 92 92 92 92 88 88 88 88 88 88 88 76 80 92 92 92 88 80 88 88
80 80 80 80 80 80 80 80 80 80 80 80 80 80 80 80 80 80 80 80 80 80 68 44 76 80 80 80 80 80 80 80 80 80 80 80 80 80 80 80 80 80 76 68 76 88 92 92 92 92 92 92 92 88 88 88 88 88 88 88 92 92 92 92 92 92 88 80 76
80 80 80 80 80 80 80 80 80 80 80 80 80 80 80 80 80 80 80 80 80 80 76 44 64 76 80 80 80 80 80 80 80 80 80 80 80 80 80 80 80 88 88 88 80 80 88 92 92 88 80 88 88 88 88 88 64 48 44 56 80 92 92 92 88 92 92 92 92
80 80 80 80 80 80 80 80 80 80 80 80 80 80 80 80 80 80 80 76 56 36 32 48 76 80 80 80 80 80 80 80 80 80 80 80 80 80 80 80 88 92 92 80 80 80 92 92 92 80 64 48 48 68 80 80 48 64 80 76 88 92 92 92 92 92 92 92 92
80 80 76 76 80 80 80 80 80 80 80 80 80 80 76 76 76 76 56 0 12 12 20 36 48 68 80 80 80 80 80 80 80 80 80 80 80 80 80 88 88 92 88 76 80 88 92 92 88 80 76 80 64 68 76 36 76 88 88 92 92 92 92 92 92 92 92 92 92
76 76 76 76 80 80 80 80 80 80 80 80 80 76 76 76 36 12 8 8 0 20 36 36 76 80 80 80 80 80 80 80 80 80 80 80 80 80 80 88 92 80 76 76 88 88 92 92 92 92 92 92 80 64 64 88 88 92 92 92 92 92 92 92 92 92 92 92 92
76 80 80 80 80 80 80 80 80 80 80 76 76 76 76 68 64 48 32 0 0 20 48 68 76 76 76 80 80 80 80 80 80 80 80 88 80 80 80 88 88 88 88 80 92 92 92 92 92 92 92 92 88 76 76 80 80 88 92 92 92 92 92 92 92 92 92 92 92
80 80 80 80 80 80 80 76 76 76 76 76 76 76 64 20 48 36 12 0 0 12 24 32 48 44 44 76 80 80 80 80 80 80 80 80 80 88 88 88 76 68 76 80 80 88 92 92 88 88 92 92 88 88 88 76 76 80 88 92 92 92 92 92 92 92 92 92 92
76 76 76 76 76 76 80 76 76 76 76 76 80 56 24 0 0 0 0 0 0 20 44 48 68 64 48 48 76 80 80 80 76 76 76 76 80 80 88 80 80 80 88 80 80 88 88 88 92 92 92 92 92 88 80 76 76 76 80 92 92 92 92 92 92 92 92 92 92
76 76 76 76 76 76 76 76 76 76 76 80 76 36 8 0 0 0 0 0 0 8 32 88 88 56 44 80 80 80 80 80 56 44 36 48 76 80 80 88 92 92 92 88 88 92 92 92 92 92 92 92 92 92 88 88 88 88 92 92 92 92 92 92 92 92 92 92 92
76 76 76 76 76 76 76 76 76 76 76 56 36 20 0 0 0 0 0 0 0 0 20 68 76 68 68 80 80 80 80 76 80 64 36 48 76 88 92 92 92 92 92 92 92 92 92 92 92 92 92 92 92 92 88 88 92 92 92 92 92 92 92 92 92 92 92 92 92
80 80 80 80 80 80 80 80 76 80 64 12 0 0 0 0 0 0 0 0 0 0 12 36 48 56 68 80 80 80 80 64 80 68 56 56 68 80 88 92 92 92 92 92 92 92 92 92 92 92 92 92 92 92 92 92 92 92 92 92 92 92 92 92 92 88 88 92 92
76 68 68 80 64 68 80 80 76 64 44 12 0 0 0 0 0 0 0 0 0 0 12 24 48 56 56 68 80 80 80 76 80 76 68 76 88 88 92 92 92 92 92 92 92 92 92 92 92 92 92 92 92 92 92 92 92 92 92 92 92 92 92 92 88 88 88 92 92
56 56 56 56 56 64 80 80 44 20 8 0 0 0 0 0 0 0 0 0 0 0 12 44 68 76 76 64 80 80 80 68 80 76 76 92 88 92 92 88 92 92 92 92 88 88 92 92 92 92 92 92 92 92 92 92 92 92 92 88 92 92 92 88 88 88 88 88 92
56 56 64 48 56 64 64 44 12 0 0 0 0 0 0 0 0 0 0 0 0 0 20 88 88 76 68 88 80 76 68 88 88 80 80 92 88 92 92 80 88 92 92 92 88 88 88 92 92 92 92 92 92 92 92 88 80 88 88 88 88 88 88 88 88 88 88 92 92